Language: 


Des rapports , des résumés tant et plus, au choix de chacun....


Données Historiques de Météogheer
Journalier Rapport pour Février 2, 2018 Unitée:  Impériale    Métrique   Les deux
Suivant Jour »
Journalier Hebdomadaire Mensuel Annuel Sur mesure
  Max: Min: Moyenne:
Température: 44.8 °F 35.2 °F 39.4 °F
Point de rosée: 44.6 °F 35.6 °F 39.2 °F
Humidité: 98% 87% 97%
Vent: 14.8mph 0mph 3.9mph
Rafales: 15.7mph - -
Vent- - West
Pression: 29.8 in 29.6 in -
Pluie: 0.54 in    
Historical Graphs
 
 
Données tabulaires pour Février 2, 2018
Heure Température Point de rosée Pression Vent Vent Rafales Humidité Pluie Taux (Horaire) Conditions
00:00 37.9 °F 37.4 °F 29.6 in West 3.8 mph 8.7 mph 98% 0.04 in
00:05 37.9 °F 37.4 °F 29.6 in SW 9.6 mph 9.6 mph 98% 0.05 in
00:10 37.9 °F 37.4 °F 29.6 in West 4 mph 9.6 mph 98% 0.04 in
00:16 37.9 °F 37.4 °F 29.6 in West 6.7 mph 8.7 mph 98% 0.05 in
00:21 37.9 °F 37.4 °F 29.6 in West 6.5 mph 10.1 mph 98% 0.06 in
00:26 37.9 °F 37.4 °F 29.6 in West 5.6 mph 10.1 mph 98% 0.06 in
00:31 38.1 °F 37.4 °F 29.6 in WSW 4.7 mph 8.5 mph 98% 0.06 in
00:36 38.1 °F 37.4 °F 29.6 in WSW 8.7 mph 8.7 mph 98% 0.07 in
00:41 38.1 °F 37.4 °F 29.6 in West 6.5 mph 8.7 mph 98% 0.07 in
00:46 38.1 °F 37.4 °F 29.6 in WSW 6.3 mph 8.5 mph 98% 0.06 in
00:51 38.3 °F 39.2 °F 29.6 in West 5.8 mph 7.8 mph 98% 0.06 in
00:56 38.3 °F 39.2 °F 29.6 in West 2.5 mph 8.1 mph 98% 0.05 in
01:01 38.5 °F 39.2 °F 29.6 in Calm   8.1 mph 98% 0.05 in
01:06 38.5 °F 39.2 °F 29.6 in Calm   6.5 mph 98% 0.03 in
01:11 38.7 °F 39.2 °F 29.6 in WSW 5.8 mph 6.3 mph 98% 0.02 in
01:16 38.7 °F 39.2 °F 29.6 in West 4.3 mph 5.8 mph 98% 0.02 in
01:21 38.8 °F 39.2 °F 29.6 in West 4.9 mph 6 mph 98% 0.01 in
01:26 38.8 °F 39.2 °F 29.6 in West 5.8 mph 6.3 mph 98% 0.01 in
01:31 39 °F 39.2 °F 29.6 in WNW 3.6 mph 6.3 mph 98% 0.01 in
01:36 39 °F 39.2 °F 29.6 in WNW 2.7 mph 4.7 mph 98% 0 in
01:41 39.2 °F 39.2 °F 29.6 in NE 3.4 mph 6.3 mph 98% 0 in
01:46 39.4 °F 39.2 °F 29.6 in West 2.5 mph 6.3 mph 98% 0 in
01:51 39.7 °F 39.2 °F 29.6 in North 3.6 mph 5.8 mph 98% 0 in
01:56 39.7 °F 39.2 °F 29.6 in WNW 2.9 mph 7.6 mph 98% 0 in
02:01 39.9 °F 39.2 °F 29.6 in West 2 mph 9.6 mph 98% 0 in
02:06 39.9 °F 39.2 °F 29.6 in WNW 3.1 mph 9.6 mph 98% 0 in
02:12 40.1 °F 41 °F 29.6 in NNE 2.2 mph 8.1 mph 98% 0 in
02:17 40.1 °F 41 °F 29.6 in North 5.6 mph 7.4 mph 98% 0 in
02:22 40.1 °F 41 °F 29.6 in West 3.4 mph 8.7 mph 98% 0 in
02:27 39.9 °F 39.2 °F 29.6 in WSW 1.6 mph 8.7 mph 98% 0 in
02:32 39.9 °F 39.2 °F 29.6 in WNW 1.3 mph 7.6 mph 98% 0 in
02:37 39.7 °F 39.2 °F 29.6 in West 3.8 mph 6.3 mph 98% 0 in
02:42 39.6 °F 39.2 °F 29.6 in West 3.4 mph 6.5 mph 98% 0 in
02:47 39.4 °F 39.2 °F 29.6 in Calm   6.5 mph 98% 0 in
02:52 39.2 °F 39.2 °F 29.6 in Calm   4.3 mph 98% 0 in
02:57 38.8 °F 39.2 °F 29.6 in West 4.7 mph 4.7 mph 98% 0 in
03:02 38.7 °F 39.2 °F 29.6 in WSW 2 mph 5.4 mph 98% 0 in
03:07 38.7 °F 39.2 °F 29.6 in NW 3.8 mph 6.3 mph 98% 0 in
03:12 38.5 °F 39.2 °F 29.6 in WSW 0.9 mph 6.3 mph 98% 0 in
03:17 38.5 °F 39.2 °F 29.6 in WSW 3.4 mph 5.8 mph 98% 0 in
03:22 38.1 °F 37.4 °F 29.6 in West 3.8 mph 5.8 mph 98% 0 in
03:27 37.9 °F 37.4 °F 29.6 in WSW 3.1 mph 6 mph 97% 0 in
03:32 37.8 °F 37.4 °F 29.6 in Calm   6 mph 97% 0 in
03:37 37.4 °F 37.4 °F 29.6 in West 6.3 mph 6.3 mph 97% 0 in
03:42 37.4 °F 37.4 °F 29.6 in WSW 4.9 mph 7.4 mph 97% 0 in
03:47 37.4 °F 37.4 °F 29.6 in WNW 3.6 mph 7.4 mph 97% 0 in
03:52 37.2 °F 37.4 °F 29.6 in West 6 mph 6.5 mph 98% 0 in
03:57 37.4 °F 37.4 °F 29.6 in West 4.3 mph 7.6 mph 98% 0 in
04:02 37.6 °F 37.4 °F 29.6 in West 3.1 mph 7.8 mph 98% 0 in
04:07 37.9 °F 37.4 °F 29.6 in WSW 3.6 mph 7.8 mph 98% 0 in
04:12 38.1 °F 37.4 °F 29.6 in WNW 4.9 mph 7.8 mph 98% 0 in
04:17 38.5 °F 39.2 °F 29.6 in West 4.9 mph 8.7 mph 98% 0 in
04:22 38.7 °F 39.2 °F 29.6 in WNW 6.3 mph 9.6 mph 98% 0 in
04:27 38.8 °F 39.2 °F 29.6 in West 5.4 mph 9.6 mph 98% 0 in
04:32 39 °F 39.2 °F 29.6 in WSW 8.7 mph 8.7 mph 98% 0 in
04:37 39.2 °F 39.2 °F 29.6 in WNW 5.6 mph 8.7 mph 98% 0 in
04:42 39.2 °F 39.2 °F 29.6 in West 7.2 mph 11 mph 98% 0 in
04:47 39.2 °F 39.2 °F 29.6 in WSW 8.1 mph 11 mph 97% 0 in
04:52 39 °F 39.2 °F 29.6 in WSW 7.8 mph 11.9 mph 97% 0 in
04:57 39 °F 39.2 °F 29.6 in West 10.1 mph 11.9 mph 96% 0 in
05:02 38.8 °F 37.4 °F 29.6 in West 7.6 mph 10.5 mph 95% 0 in
05:07 38.7 °F 37.4 °F 29.6 in WNW 6.3 mph 10.5 mph 95% 0 in
05:12 38.7 °F 37.4 °F 29.6 in WNW 6.9 mph 12.1 mph 94% 0 in
05:17 38.7 °F 37.4 °F 29.6 in WNW 3.8 mph 12.1 mph 94% 0 in
05:22 38.7 °F 37.4 °F 29.6 in WNW 6 mph 12.1 mph 94% 0 in
05:27 38.7 °F 37.4 °F 29.6 in West 8.5 mph 12.8 mph 94% 0 in
05:32 38.7 °F 37.4 °F 29.6 in West 7.8 mph 12.8 mph 94% 0 in
05:37 38.8 °F 37.4 °F 29.6 in West 8.1 mph 10.5 mph 93% 0 in
05:42 39 °F 37.4 °F 29.6 in WSW 8.1 mph 10.5 mph 93% 0 in
05:48 39.2 °F 37.4 °F 29.6 in WNW 7.8 mph 10.7 mph 93% 0 in
05:53 39.4 °F 37.4 °F 29.6 in West 7.8 mph 11 mph 92% 0 in
05:58 39.4 °F 37.4 °F 29.6 in WNW 6.3 mph 11 mph 92% 0 in
06:03 39.4 °F 37.4 °F 29.6 in WSW 11 mph 12.8 mph 91% 0 in
06:08 39.6 °F 37.4 °F 29.6 in South 3.8 mph 12.8 mph 91% 0 in
06:13 39.6 °F 37.4 °F 29.6 in West 2.9 mph 12.5 mph 91% 0 in
06:18 39.6 °F 37.4 °F 29.6 in West 6.3 mph 8.7 mph 91% 0 in
06:23 39.6 °F 37.4 °F 29.6 in West 4 mph 7.8 mph 92% 0.01 in
06:28 39.6 °F 37.4 °F 29.6 in WNW 5.6 mph 10.7 mph 92% 0.01 in
06:33 39.6 °F 37.4 °F 29.6 in WNW 7.4 mph 10.7 mph 93% 0.01 in
06:38 39.6 °F 37.4 °F 29.6 in West 1.1 mph 10.7 mph 93% 0.02 in
06:43 39.4 °F 37.4 °F 29.6 in West 5.4 mph 8.1 mph 94% 0.02 in
06:48 39.4 °F 37.4 °F 29.6 in NNW 7.4 mph 7.6 mph 94% 0.02 in
06:53 39.4 °F 37.4 °F 29.6 in West 3.4 mph 13.2 mph 95% 0.02 in
06:58 39.4 °F 39.2 °F 29.6 in WSW 4.3 mph 13.2 mph 96% 0.02 in
07:03 39.4 °F 39.2 °F 29.6 in West 3.6 mph 8.7 mph 96% 0.02 in
07:08 39.2 °F 39.2 °F 29.6 in ENE 5.8 mph 6.5 mph 96% 0.02 in
07:13 39.2 °F 39.2 °F 29.7 in South 3.6 mph 11 mph 97% 0.02 in
07:18 39.4 °F 39.2 °F 29.7 in NW 7.4 mph 11 mph 97% 0.03 in
07:24 39.4 °F 39.2 °F 29.7 in West 8.1 mph 9.4 mph 98% 0.04 in
07:29 39.4 °F 39.2 °F 29.7 in WNW 6.9 mph 9.4 mph 98% 0.05 in
07:34 39.2 °F 39.2 °F 29.7 in NW 5.4 mph 8.1 mph 98% 0.05 in
07:39 39.2 °F 39.2 °F 29.7 in WSW 3.1 mph 6.9 mph 98% 0.04 in
07:44 39.2 °F 39.2 °F 29.7 in West 1.3 mph 8.7 mph 98% 0.04 in
07:49 39.2 °F 39.2 °F 29.7 in West 5.6 mph 8.7 mph 98% 0.04 in
07:54 39.2 °F 39.2 °F 29.7 in West 5.6 mph 8.9 mph 98% 0.04 in
07:59 39.2 °F 39.2 °F 29.7 in WSW 5.4 mph 10.7 mph 98% 0.04 in
08:04 39.4 °F 39.2 °F 29.7 in SSW 6.9 mph 10.7 mph 98% 0.04 in
08:09 39.4 °F 39.2 °F 29.7 in WNW 7.2 mph 10.7 mph 98% 0.04 in
08:14 39.4 °F 39.2 °F 29.7 in SSW 6.3 mph 10.7 mph 98% 0.03 in
08:19 39.4 °F 39.2 °F 29.7 in West 3.4 mph 10.1 mph 98% 0.03 in
08:24 39.4 °F 39.2 °F 29.7 in WSW 9.6 mph 10.1 mph 98% 0.01 in
08:29 39.4 °F 39.2 °F 29.7 in West 2.5 mph 10.7 mph 98% 0.01 in
08:34 39.4 °F 39.2 °F 29.7 in WSW 12.1 mph 12.1 mph 98% 0.01 in
08:39 39.6 °F 39.2 °F 29.7 in West 5.6 mph 12.1 mph 98% 0.01 in
08:44 39.6 °F 39.2 °F 29.7 in WSW 5.8 mph 12.1 mph 98% 0.01 in
08:49 39.7 °F 39.2 °F 29.7 in WSW 6.3 mph 10.5 mph 98% 0.01 in
08:54 39.7 °F 39.2 °F 29.7 in WSW 6.3 mph 11 mph 98% 0.01 in
08:59 39.7 °F 39.2 °F 29.7 in West 7.6 mph 11.4 mph 98% 0.01 in
09:04 39.7 °F 39.2 °F 29.7 in WSW 8.1 mph 11.4 mph 98% 0.01 in
09:09 39.7 °F 39.2 °F 29.7 in West 7.4 mph 10.7 mph 98% 0.01 in
09:14 39.7 °F 39.2 °F 29.7 in West 6 mph 10.7 mph 98% 0.01 in
09:19 39.7 °F 39.2 °F 29.7 in WSW 5.6 mph 9.4 mph 98% 0.01 in
09:24 39.7 °F 39.2 °F 29.7 in WSW 3.8 mph 8.1 mph 98% 0.01 in
09:29 39.9 °F 39.2 °F 29.7 in West 2.5 mph 8.1 mph 98% 0 in
09:34 39.9 °F 39.2 °F 29.7 in WSW 4.7 mph 7.8 mph 98% 0 in
09:39 40.1 °F 41 °F 29.7 in West 5.4 mph 7.8 mph 98% 0 in
09:45 40.3 °F 41 °F 29.7 in WSW 1.1 mph 8.5 mph 98% 0 in
09:50 40.5 °F 41 °F 29.7 in West 5.8 mph 8.5 mph 98% 0 in
09:55 40.5 °F 41 °F 29.7 in WSW 7.8 mph 8.5 mph 98% 0 in
10:00 40.5 °F 41 °F 29.7 in WSW 6.3 mph 8.5 mph 98% 0 in
10:05 40.6 °F 41 °F 29.7 in West 14.8 mph 14.8 mph 98% 0 in
10:10 41 °F 41 °F 29.7 in WSW 4.3 mph 14.8 mph 98% 0 in
10:15 41.4 °F 41 °F 29.7 in West 6.3 mph 10.1 mph 98% 0 in
10:20 41.4 °F 41 °F 29.7 in WSW 7.6 mph 10.5 mph 98% 0 in
10:25 41.5 °F 42.8 °F 29.7 in NNW 7.6 mph 10.5 mph 98% 0 in
10:30 41.7 °F 42.8 °F 29.7 in WNW 5.6 mph 10.3 mph 98% 0 in
10:36 41.7 °F 42.8 °F 29.7 in West 6.9 mph 10.5 mph 98% 0 in
10:41 41.7 °F 42.8 °F 29.7 in West 6.3 mph 10.5 mph 98% 0 in
10:46 41.5 °F 42.8 °F 29.7 in WSW 3.8 mph 10.5 mph 98% 0 in
10:51 41.5 °F 42.8 °F 29.7 in WSW 12.1 mph 12.1 mph 98% 0 in
10:56 41.4 °F 41 °F 29.7 in West 6 mph 12.1 mph 98% 0 in
11:01 41.2 °F 41 °F 29.7 in West 10.7 mph 11 mph 98% 0 in
11:06 41 °F 41 °F 29.7 in SW 2.9 mph 11.4 mph 98% 0.01 in
11:11 41 °F 41 °F 29.7 in WSW 3.6 mph 13 mph 98% 0.02 in
11:16 41 °F 41 °F 29.7 in SSW 5.4 mph 13 mph 98% 0.02 in
11:21 41 °F 41 °F 29.7 in West 7.2 mph 9.6 mph 98% 0.02 in
11:26 41 °F 41 °F 29.7 in West 9.8 mph 10.5 mph 98% 0.02 in
11:31 41 °F 41 °F 29.7 in WSW 9.6 mph 10.5 mph 98% 0.02 in
11:36 41 °F 41 °F 29.7 in West 10.3 mph 11.9 mph 98% 0.02 in
11:41 40.8 °F 41 °F 29.7 in WSW 10.5 mph 13.2 mph 98% 0.03 in
11:46 40.8 °F 41 °F 29.7 in WSW 4.9 mph 13.2 mph 98% 0.03 in
11:51 40.8 °F 41 °F 29.7 in Calm   11.2 mph 98% 0.05 in
11:56 40.8 °F 41 °F 29.7 in NNW 5.4 mph 10.7 mph 98% 0.05 in
12:01 41 °F 41 °F 29.7 in NNW 4 mph 10.7 mph 98% 0.06 in
12:06 41.2 °F 41 °F 29.7 in NNW 8.5 mph 10.1 mph 98% 0.05 in
12:11 41.2 °F 41 °F 29.7 in NW 7.4 mph 10.3 mph 98% 0.03 in
12:16 41.2 °F 41 °F 29.7 in WNW 3.6 mph 10.3 mph 98% 0.05 in
12:22 41.2 °F 41 °F 29.7 in NNW 6.5 mph 14.5 mph 98% 0.05 in
12:27 41.2 °F 41 °F 29.7 in West 8.5 mph 14.5 mph 98% 0.06 in
12:32 41 °F 41 °F 29.7 in WNW 6.7 mph 8.7 mph 98% 0.07 in
12:37 41 °F 41 °F 29.7 in WSW 4.9 mph 11.9 mph 98% 0.07 in
12:42 41 °F 41 °F 29.7 in North 7.8 mph 11.9 mph 98% 0.07 in
12:47 41.2 °F 41 °F 29.7 in NNW 2.9 mph 9.4 mph 98% 0.07 in
12:52 41.2 °F 41 °F 29.7 in NNE 7.4 mph 9.6 mph 98% 0.06 in
12:57 41.5 °F 42.8 °F 29.7 in West 2.7 mph 9.6 mph 98% 0.05 in
13:02 42.3 °F 42.8 °F 29.7 in WSW 3.6 mph 8.5 mph 98% 0.05 in
13:07 42.3 °F 42.8 °F 29.7 in WNW 3.8 mph 10.3 mph 98% 0.05 in
13:12 42.1 °F 42.8 °F 29.7 in West 2.7 mph 10.3 mph 98% 0.05 in
13:17 42.1 °F 42.8 °F 29.7 in NW 5.6 mph 8.5 mph 98% 0.03 in
13:22 42.8 °F 42.8 °F 29.7 in WNW 3.4 mph 8.1 mph 98% 0.03 in
13:27 43 °F 42.8 °F 29.7 in WNW 5.6 mph 8.1 mph 98% 0.02 in
13:32 42.8 °F 42.8 °F 29.7 in NNW 7.4 mph 7.8 mph 98% 0.01 in
13:37 42.8 °F 42.8 °F 29.7 in NNW 4.9 mph 7.8 mph 98% 0.01 in
13:42 43 °F 42.8 °F 29.7 in WNW 5.8 mph 7.8 mph 98% 0 in
13:47 43.3 °F 42.8 °F 29.7 in WSW 9.8 mph 9.8 mph 98% 0 in
13:52 43.9 °F 44.6 °F 29.7 in West 6.3 mph 10.1 mph 98% 0 in
13:57 44.1 °F 42.8 °F 29.7 in NNW 11 mph 11 mph 97% 0 in
14:02 44.4 °F 42.8 °F 29.7 in NNW 7.8 mph 15.7 mph 95% 0 in
14:07 44.8 °F 42.8 °F 29.7 in North 3.6 mph 15.7 mph 93% 0 in
14:12 44.1 °F 42.8 °F 29.7 in North 8.7 mph 13.2 mph 93% 0 in
14:17 42.4 °F 39.2 °F 29.7 in North 9.6 mph 13.2 mph 87% 0.01 in
14:22 41.9 °F 39.2 °F 29.7 in NNW 5.4 mph 12.8 mph 89% 0.02 in
14:27 41.7 °F 39.2 °F 29.7 in North 4 mph 10.3 mph 91% 0.02 in
14:32 41.4 °F 39.2 °F 29.7 in NNW 4.9 mph 10.3 mph 91% 0.03 in
14:37 41 °F 39.2 °F 29.7 in NNW 6.3 mph 10.3 mph 91% 0.05 in
14:42 39.2 °F 37.4 °F 29.7 in NNE 7.8 mph 13.9 mph 89% 0.12 in
14:48 38.8 °F 37.4 °F 29.7 in WNW 4.9 mph 13.9 mph 93% 0.16 in
14:53 38.7 °F 37.4 °F 29.7 in NW 6 mph 12.1 mph 95% 0.18 in
14:58 38.7 °F 37.4 °F 29.7 in NNW 6.9 mph 9.8 mph 96% 0.21 in
15:03 38.8 °F 37.4 °F 29.7 in NNW 2.5 mph 9.8 mph 97% 0.21 in
15:09 38.8 °F 39.2 °F 29.7 in NNW 3.6 mph 7.2 mph 98% 0.21 in
15:14 38.8 °F 39.2 °F 29.7 in NNW 3.8 mph 10.3 mph 98% 0.21 in
15:19 39 °F 39.2 °F 29.7 in WNW 3.4 mph 10.3 mph 98% 0.21 in
15:24 39 °F 39.2 °F 29.7 in Calm   7.6 mph 98% 0.21 in
15:29 39.2 °F 39.2 °F 29.7 in Calm   7.2 mph 98% 0.21 in
15:34 39.7 °F 39.2 °F 29.7 in West 4 mph 4.5 mph 98% 0.2 in
15:39 39.9 °F 39.2 °F 29.7 in NNW 2.2 mph 4.5 mph 98% 0.15 in
15:44 39.9 °F 39.2 °F 29.7 in NNW 4.9 mph 5.6 mph 98% 0.11 in
15:49 39.7 °F 39.2 °F 29.7 in North 2.9 mph 5.6 mph 98% 0.1 in
15:54 39.9 °F 39.2 °F 29.7 in WNW 5.4 mph 6.3 mph 98% 0.07 in
15:59 39.9 °F 39.2 °F 29.7 in NNW 3.6 mph 6.3 mph 98% 0.05 in
16:04 40.1 °F 41 °F 29.7 in NNW 2.5 mph 6.5 mph 98% 0.06 in
16:09 40.3 °F 41 °F 29.7 in North 1.3 mph 6.5 mph 98% 0.06 in
16:14 41 °F 41 °F 29.7 in Calm   4.3 mph 98% 0.05 in
16:19 41.7 °F 42.8 °F 29.7 in NW 4 mph 4.3 mph 98% 0.03 in
16:24 41.2 °F 41 °F 29.7 in NNE 1.6 mph 7.8 mph 98% 0.03 in
16:29 41.2 °F 41 °F 29.7 in ESE 2.2 mph 8.5 mph 98% 0.03 in
16:34 41 °F 41 °F 29.7 in NE 8.1 mph 8.7 mph 98% 0.05 in
16:39 41.2 °F 41 °F 29.7 in North 2.7 mph 8.7 mph 98% 0.05 in
16:44 41 °F 41 °F 29.7 in North 5.8 mph 8.7 mph 98% 0.04 in
16:49 40.8 °F 41 °F 29.7 in North 7.4 mph 7.8 mph 98% 0.03 in
16:54 40.6 °F 41 °F 29.7 in NNE 2.2 mph 7.8 mph 98% 0.03 in
16:59 40.6 °F 41 °F 29.7 in NNW 1.3 mph 7.4 mph 98% 0.03 in
17:04 41 °F 41 °F 29.7 in NE 5.6 mph 5.8 mph 98% 0.01 in
17:09 41.2 °F 41 °F 29.7 in Calm   5.6 mph 98% 0.01 in
17:14 41.2 °F 41 °F 29.7 in NNE 3.6 mph 6.7 mph 98% 0.01 in
17:19 41 °F 41 °F 29.7 in North 6 mph 7.6 mph 98% 0.01 in
17:24 40.5 °F 41 °F 29.7 in NNE 6 mph 12.8 mph 98% 0.01 in
17:29 40.1 °F 41 °F 29.7 in North 8.1 mph 12.8 mph 98% 0.03 in
17:34 39.9 °F 39.2 °F 29.7 in WNW 3.1 mph 8.1 mph 98% 0.01 in
17:39 39.7 °F 39.2 °F 29.7 in Calm   7.6 mph 98% 0.01 in
17:44 39.7 °F 39.2 °F 29.7 in Calm   4.3 mph 98% 0.01 in
17:49 39.6 °F 39.2 °F 29.7 in Calm   2.7 mph 98% 0.01 in
17:54 39.4 °F 39.2 °F 29.7 in Calm   3.1 mph 98% 0.01 in
18:00 39.2 °F 39.2 °F 29.7 in Calm   3.8 mph 98% 0.01 in
18:05 38.8 °F 39.2 °F 29.7 in Calm   3.8 mph 98% 0.01 in
18:10 38.7 °F 39.2 °F 29.7 in Calm   2.2 mph 98% 0.01 in
18:15 38.7 °F 39.2 °F 29.8 in Calm   1.1 mph 98% 0.01 in
18:20 38.8 °F 39.2 °F 29.8 in Calm     98% 0.01 in
18:25 39 °F 39.2 °F 29.8 in Calm   1.1 mph 98% 0.01 in
18:30 39 °F 39.2 °F 29.8 in Calm   2.9 mph 98% 0 in
18:35 39.2 °F 39.2 °F 29.8 in North 4.9 mph 7.6 mph 98% 0.01 in
18:40 39.4 °F 39.2 °F 29.8 in NNW 3.8 mph 7.6 mph 98% 0.01 in
18:45 39.4 °F 39.2 °F 29.8 in Calm   5.6 mph 98% 0.01 in
18:50 39.4 °F 39.2 °F 29.8 in Calm   2.9 mph 98% 0.02 in
18:55 39.2 °F 39.2 °F 29.8 in Calm   2 mph 98% 0.02 in
19:00 39.2 °F 39.2 °F 29.8 in Calm   2 mph 98% 0.02 in
19:05 39.2 °F 39.2 °F 29.8 in Calm   1.3 mph 98% 0.02 in
19:10 39.2 °F 39.2 °F 29.8 in Calm   1.3 mph 98% 0.02 in
19:16 39.4 °F 39.2 °F 29.8 in Calm   6.5 mph 98% 0.02 in
19:21 39.4 °F 39.2 °F 29.8 in North 2.5 mph 6.5 mph 98% 0.02 in
19:26 39.4 °F 39.2 °F 29.8 in Calm   4 mph 98% 0.02 in
19:31 39.4 °F 39.2 °F 29.8 in NNW 3.8 mph 3.8 mph 98% 0.02 in
19:36 39.2 °F 39.2 °F 29.8 in Calm   3.8 mph 98% 0.01 in
19:41 39 °F 39.2 °F 29.8 in Calm   3.8 mph 98% 0.01 in
19:46 38.8 °F 39.2 °F 29.8 in Calm     98% 0.01 in
19:51 38.7 °F 39.2 °F 29.8 in Calm     98% 0 in
19:56 38.3 °F 39.2 °F 29.8 in Calm     98% 0 in
20:01 38.1 °F 37.4 °F 29.8 in WNW 1.1 mph 1.1 mph 98% 0 in
20:06 38.1 °F 37.4 °F 29.8 in Calm   3.4 mph 98% 0 in
20:11 37.9 °F 37.4 °F 29.8 in Calm   3.4 mph 98% 0 in
20:16 37.8 °F 37.4 °F 29.8 in Calm   3.4 mph 98% 0 in
20:21 37.6 °F 37.4 °F 29.8 in Calm   3.4 mph 98% 0 in
20:26 37.4 °F 37.4 °F 29.8 in Calm   2.5 mph 98% 0 in
20:31 37.2 °F 37.4 °F 29.8 in Calm   2.5 mph 98% 0 in
20:36 37 °F 37.4 °F 29.8 in Calm   2.7 mph 98% 0 in
20:41 36.9 °F 37.4 °F 29.8 in Calm   2.7 mph 98% 0 in
20:46 36.9 °F 37.4 °F 29.8 in Calm   2.9 mph 98% 0 in
20:51 37 °F 37.4 °F 29.8 in Calm   4.7 mph 98% 0 in
20:56 37 °F 37.4 °F 29.8 in Calm   4.7 mph 98% 0 in
21:01 37 °F 37.4 °F 29.8 in Calm   3.4 mph 98% 0 in
21:06 37 °F 37.4 °F 29.8 in Calm   3.4 mph 98% 0 in
21:11 37 °F 37.4 °F 29.8 in NNE 0.9 mph 2.9 mph 98% 0 in
21:16 37 °F 37.4 °F 29.8 in Calm   3.1 mph 98% 0 in
21:21 37 °F 37.4 °F 29.8 in Calm   3.1 mph 98% 0 in
21:26 37.4 °F 37.4 °F 29.8 in NNW 2 mph 4.7 mph 98% 0 in
21:31 37.4 °F 37.4 °F 29.8 in Calm   4.7 mph 98% 0 in
21:36 37.4 °F 37.4 °F 29.8 in Calm   4 mph 98% 0 in
21:41 37.2 °F 37.4 °F 29.8 in Calm   3.4 mph 98% 0 in
21:46 36.9 °F 37.4 °F 29.8 in Calm     98% 0 in
21:52 36.3 °F 37.4 °F 29.8 in Calm     98% 0 in
21:57 36.1 °F 37.4 °F 29.8 in Calm     98% 0 in
22:02 36.1 °F 37.4 °F 29.8 in Calm   2 mph 98% 0 in
22:07 36.5 °F 37.4 °F 29.8 in Calm   2 mph 98% 0 in
22:12 36.7 °F 37.4 °F 29.8 in Calm     98% 0 in
22:17 36.3 °F 37.4 °F 29.8 in Calm     98% 0 in
22:22 36.3 °F 37.4 °F 29.8 in Calm     98% 0 in
22:27 36.3 °F 37.4 °F 29.8 in Calm   2.5 mph 98% 0 in
22:32 36.5 °F 37.4 °F 29.8 in Calm   2.5 mph 98% 0 in
22:37 36.3 °F 37.4 °F 29.8 in Calm     98% 0 in
22:42 36.1 °F 37.4 °F 29.8 in Calm     98% 0 in
22:47 35.8 °F 35.6 °F 29.8 in Calm     98% 0 in
22:52 35.8 °F 35.6 °F 29.8 in Calm     98% 0 in
22:57 35.6 °F 35.6 °F 29.8 in Calm     98% 0 in
23:02 35.6 °F 35.6 °F 29.8 in Calm     98% 0 in
23:07 35.6 °F 35.6 °F 29.8 in Calm     98% 0 in
23:12 35.6 °F 35.6 °F 29.8 in Calm     98% 0 in
23:17 35.6 °F 35.6 °F 29.8 in Calm     98% 0 in
23:22 35.6 °F 35.6 °F 29.8 in Calm     98% 0 in
23:27 35.8 °F 35.6 °F 29.8 in Calm   2.5 mph 98% 0 in
23:32 35.8 °F 35.6 °F 29.8 in Calm   2.5 mph 98% 0 in
23:37 35.8 °F 35.6 °F 29.8 in Calm     98% 0 in
23:42 35.6 °F 35.6 °F 29.8 in Calm     98% 0 in
23:48 35.4 °F 35.6 °F 29.8 in Calm     98% 0 in
23:53 35.2 °F 35.6 °F 29.8 in Calm     98% 0 in
23:58 35.2 °F 35.6 °F 29.8 in Calm     98% 0 in
Données Historique de Météo Turbie

Mise a jour : 22/05/2018 21:52:12
Généré par Cumulus 1.9.4 (1099)